Wetterdaten: Sonntag, 02.08.2015
Datum Zeit Temp. A. Feuchte A. Luftdruck Regen Wind Richtung Richtung Sonnenschein ET UV Solar Taupunkt Windchill Windben Empfang
02.08.2015 00:02 18,9 C 63 % 1015,6 hPa 0,0 l/m 0,0 km/h (0 Bft) W-SW 248 0 min 0,000 mm 0,0 UV-I 0 W/m 11,7 C 18,9 C 0,0 km/h (0 Bft) 0,00 %
02.08.2015 00:07 18,8 C 63 % 1015,7 hPa 0,0 l/m 4,3 km/h (1 Bft) N-NO 13 0 min 0,000 mm 0,0 UV-I 0 W/m 11,6 C 18,8 C 7,9 km/h (2 Bft) 0,00 %
02.08.2015 00:12 18,8 C 63 % 1015,4 hPa 0,0 l/m 2,2 km/h (1 Bft) N-NW 332 0 min 0,000 mm 0,0 UV-I 0 W/m 11,6 C 18,8 C 4,0 km/h (1 Bft) 0,00 %
02.08.2015 00:17 18,7 C 63 % 1015,8 hPa 0,0 l/m 0,7 km/h (0 Bft) SW 225 0 min 0,000 mm 0,0 UV-I 0 W/m 11,5 C 18,7 C 4,0 km/h (1 Bft) 0,00 %
02.08.2015 00:22 18,7 C 63 % 1015,7 hPa 0,0 l/m 0,0 km/h (0 Bft) N-NW 348 0 min 0,000 mm 0,0 UV-I 0 W/m 11,5 C 18,7 C 0,0 km/h (0 Bft) 0,00 %
02.08.2015 00:27 18,6 C 63 % 1015,8 hPa 0,0 l/m 0,0 km/h (0 Bft) O-NO 59 0 min 0,000 mm 0,0 UV-I 0 W/m 11,4 C 18,6 C 0,0 km/h (0 Bft) 0,00 %
02.08.2015 00:32 18,6 C 63 % 1015,8 hPa 0,0 l/m 0,7 km/h (0 Bft) N 354 0 min 0,000 mm 0,0 UV-I 0 W/m 11,4 C 18,6 C 4,0 km/h (1 Bft) 0,00 %
02.08.2015 00:37 18,5 C 64 % 1015,8 hPa 0,0 l/m 0,4 km/h (0 Bft) N-NW 342 0 min 0,000 mm 0,0 UV-I 0 W/m 11,6 C 18,5 C 4,0 km/h (1 Bft) 0,00 %
02.08.2015 00:42 18,4 C 64 % 1016,0 hPa 0,0 l/m 0,7 km/h (0 Bft) SW 216 0 min 0,000 mm 0,0 UV-I 0 W/m 11,5 C 18,4 C 4,0 km/h (1 Bft) 0,00 %
02.08.2015 00:47 18,3 C 65 % 1015,9 hPa 0,0 l/m 1,8 km/h (1 Bft) N 357 0 min 0,000 mm 0,0 UV-I 0 W/m 11,6 C 18,3 C 4,0 km/h (1 Bft) 0,00 %
02.08.2015 00:52 18,3 C 66 % 1015,9 hPa 0,0 l/m 4,0 km/h (1 Bft) W 260 0 min 0,000 mm 0,0 UV-I 0 W/m 11,8 C 18,3 C 7,9 km/h (2 Bft) 0,00 %
02.08.2015 00:57 18,2 C 67 % 1016,0 hPa 0,0 l/m 0,0 km/h (0 Bft) N-NW 340 0 min 0,000 mm 0,0 UV-I 0 W/m 12,0 C 18,2 C 0,0 km/h (0 Bft) 0,00 %
02.08.2015 01:02 18,1 C 68 % 1016,2 hPa 0,0 l/m 2,9 km/h (1 Bft) NW 315 0 min 0,000 mm 0,0 UV-I 0 W/m 12,1 C 18,1 C 4,0 km/h (1 Bft) 0,00 %
02.08.2015 01:07 17,9 C 70 % 1016,2 hPa 0,0 l/m 1,8 km/h (1 Bft) W-NW 303 0 min 0,000 mm 0,0 UV-I 0 W/m 12,3 C 17,9 C 4,0 km/h (1 Bft) 0,00 %
02.08.2015 01:12 17,8 C 71 % 1016,3 hPa 0,0 l/m 2,9 km/h (1 Bft) NW 321 0 min 0,000 mm 0,0 UV-I 0 W/m 12,5 C 17,8 C 7,9 km/h (2 Bft) 0,00 %
02.08.2015 01:17 17,7 C 71 % 1016,2 hPa 0,0 l/m 4,0 km/h (1 Bft) W-SW 256 0 min 0,000 mm 0,0 UV-I 0 W/m 12,4 C 17,7 C 7,9 km/h (2 Bft) 0,00 %
02.08.2015 01:22 17,7 C 72 % 1016,3 hPa 0,0 l/m 4,3 km/h (1 Bft) W-NW 285 0 min 0,000 mm 0,0 UV-I 0 W/m 12,6 C 17,7 C 7,9 km/h (2 Bft) 0,00 %
02.08.2015 01:27 17,5 C 75 % 1016,3 hPa 0,0 l/m 2,9 km/h (1 Bft) S-SW 208 0 min 0,000 mm 0,0 UV-I 0 W/m 13,0 C 17,5 C 7,9 km/h (2 Bft) 0,00 %
02.08.2015 01:33 17,3 C 78 % 1016,2 hPa 0,0 l/m 5,4 km/h (1 Bft) SW 216 0 min 0,000 mm 0,0 UV-I 0 W/m 13,4 C 17,3 C 7,9 km/h (2 Bft) 0,00 %
02.08.2015 01:38 16,8 C 80 % 1016,4 hPa 0,0 l/m 5,4 km/h (1 Bft) W-SW 256 0 min 0,000 mm 0,0 UV-I 0 W/m 13,3 C 16,8 C 7,9 km/h (2 Bft) 0,00 %
02.08.2015 01:43 16,4 C 82 % 1016,5 hPa 0,3 l/m 0,0 km/h (0 Bft) NO 48 0 min 0,000 mm 0,0 UV-I 0 W/m 13,3 C 16,4 C 0,0 km/h (0 Bft) 0,00 %
02.08.2015 01:48 16,1 C 84 % 1016,5 hPa 0,0 l/m 4,0 km/h (1 Bft) N-NO 33 0 min 0,000 mm 0,0 UV-I 0 W/m 13,4 C 16,1 C 7,9 km/h (2 Bft) 0,00 %
02.08.2015 01:53 15,9 C 86 % 1016,5 hPa 0,0 l/m 4,3 km/h (1 Bft) N-NW 331 0 min 0,000 mm 0,0 UV-I 0 W/m 13,6 C 15,9 C 7,9 km/h (2 Bft) 0,00 %
02.08.2015 01:58 15,8 C 88 % 1016,5 hPa 0,0 l/m 1,8 km/h (1 Bft) O-NO 67 0 min 0,000 mm 0,0 UV-I 0 W/m 13,8 C 15,8 C 4,0 km/h (1 Bft) 0,00 %
02.08.2015 02:03 15,7 C 88 % 1016,5 hPa 0,0 l/m 7,2 km/h (2 Bft) W-SW 256 0 min 0,000 mm 0,0 UV-I 0 W/m 13,7 C 15,3 C 11,9 km/h (2 Bft) 0,00 %
02.08.2015 02:08 15,7 C 89 % 1016,6 hPa 0,0 l/m 2,9 km/h (1 Bft) W-NW 295 0 min 0,000 mm 0,0 UV-I 0 W/m 13,9 C 15,7 C 7,9 km/h (2 Bft) 0,00 %
02.08.2015 02:13 15,6 C 89 % 1016,5 hPa 0,0 l/m 0,7 km/h (0 Bft) N 349 0 min 0,000 mm 0,0 UV-I 0 W/m 13,8 C 15,6 C 4,0 km/h (1 Bft) 0,00 %
02.08.2015 02:18 15,5 C 89 % 1016,6 hPa 0,3 l/m 0,0 km/h (0 Bft) NO 37 0 min 0,000 mm 0,0 UV-I 0 W/m 13,7 C 15,5 C 0,0 km/h (0 Bft) 0,00 %
02.08.2015 02:23 15,4 C 90 % 1016,7 hPa 0,0 l/m 6,5 km/h (2 Bft) N-NW 332 0 min 0,000 mm 0,0 UV-I 0 W/m 13,8 C 15,4 C 11,9 km/h (2 Bft) 0,00 %
02.08.2015 02:28 15,4 C 90 % 1016,8 hPa 0,0 l/m 1,4 km/h (1 Bft) S-SW 201 0 min 0,000 mm 0,0 UV-I 0 W/m 13,8 C 15,4 C 4,0 km/h (1 Bft) 0,00 %
02.08.2015 02:33 15,3 C 91 % 1016,7 hPa 0,0 l/m 1,8 km/h (1 Bft) W-SW 247 0 min 0,000 mm 0,0 UV-I 0 W/m 13,8 C 15,3 C 4,0 km/h (1 Bft) 0,00 %
02.08.2015 02:38 15,2 C 91 % 1016,6 hPa 0,0 l/m 0,0 km/h (0 Bft) N-NO 17 0 min 0,000 mm 0,0 UV-I 0 W/m 13,7 C 15,2 C 0,0 km/h (0 Bft) 0,00 %
02.08.2015 02:43 15,2 C 92 % 1016,8 hPa 0,0 l/m 0,4 km/h (0 Bft) N-NO 12 0 min 0,000 mm 0,0 UV-I 0 W/m 13,9 C 15,2 C 4,0 km/h (1 Bft) 0,00 %
02.08.2015 02:48 15,2 C 92 % 1016,8 hPa 0,0 l/m 1,8 km/h (1 Bft) S 182 0 min 0,000 mm 0,0 UV-I 0 W/m 13,9 C 15,2 C 4,0 km/h (1 Bft) 0,00 %
02.08.2015 02:53 15,1 C 92 % 1016,7 hPa 0,0 l/m 3,2 km/h (1 Bft) W 274 0 min 0,000 mm 0,0 UV-I 0 W/m 13,8 C 15,1 C 4,0 km/h (1 Bft) 0,00 %
02.08.2015 02:58 15,1 C 92 % 1016,7 hPa 0,0 l/m 2,2 km/h (1 Bft) N 351 0 min 0,000 mm 0,0 UV-I 0 W/m 13,8 C 15,1 C 4,0 km/h (1 Bft) 0,00 %
02.08.2015 03:03 15,0 C 93 % 1016,8 hPa 0,0 l/m 0,0 km/h (0 Bft) N 355 0 min 0,000 mm 0,0 UV-I 0 W/m 13,9 C 15,0 C 0,0 km/h (0 Bft) 0,00 %
02.08.2015 03:08 15,0 C 93 % 1016,7 hPa 0,0 l/m 0,0 km/h (0 Bft) O 93 0 min 0,000 mm 0,0 UV-I 0 W/m 13,9 C 15,0 C 0,0 km/h (0 Bft) 0,00 %
02.08.2015 03:13 15,0 C 93 % 1016,4 hPa 0,3 l/m 0,7 km/h (0 Bft) N-NW 331 0 min 0,000 mm 0,0 UV-I 0 W/m 13,9 C 15,0 C 4,0 km/h (1 Bft) 0,00 %
02.08.2015 03:18 15,0 C 93 % 1016,7 hPa 0,0 l/m 0,0 km/h (0 Bft) NO 39 0 min 0,000 mm 0,0 UV-I 0 W/m 13,9 C 15,0 C 0,0 km/h (0 Bft) 0,00 %
02.08.2015 03:23 15,0 C 93 % 1016,5 hPa 0,0 l/m 0,0 km/h (0 Bft) W 268 0 min 0,000 mm 0,0 UV-I 0 W/m 13,9 C 15,0 C 0,0 km/h (0 Bft) 0,00 %
02.08.2015 03:28 15,0 C 94 % 1016,4 hPa 0,0 l/m 0,4 km/h (0 Bft) W-SW 256 0 min 0,000 mm 0,0 UV-I 0 W/m 14,0 C 15,0 C 4,0 km/h (1 Bft) 0,00 %
02.08.2015 03:33 14,9 C 95 % 1016,4 hPa 0,0 l/m 4,3 km/h (1 Bft) N-NW 344 0 min 0,000 mm 0,0 UV-I 0 W/m 14,1 C 14,9 C 7,9 km/h (2 Bft) 0,00 %
02.08.2015 03:38 14,9 C 95 % 1016,6 hPa 0,0 l/m 0,0 km/h (0 Bft) NO 53 0 min 0,000 mm 0,0 UV-I 0 W/m 14,1 C 14,9 C 0,0 km/h (0 Bft) 0,00 %
02.08.2015 03:43 14,9 C 95 % 1016,6 hPa 0,0 l/m 0,0 km/h (0 Bft) W 277 0 min 0,000 mm 0,0 UV-I 0 W/m 14,1 C 14,9 C 0,0 km/h (0 Bft) 0,00 %
02.08.2015 03:48 14,9 C 95 % 1016,6 hPa 0,0 l/m 0,4 km/h (0 Bft) N 353 0 min 0,000 mm 0,0 UV-I 0 W/m 14,1 C 14,9 C 4,0 km/h (1 Bft) 0,00 %
02.08.2015 03:53 14,9 C 95 % 1016,8 hPa 0,0 l/m 0,0 km/h (0 Bft) N-NO 23 0 min 0,000 mm 0,0 UV-I 0 W/m 14,1 C 14,9 C 0,0 km/h (0 Bft) 0,00 %
02.08.2015 03:58 14,8 C 95 % 1016,9 hPa 0,0 l/m 1,4 km/h (1 Bft) W-NW 298 0 min 0,000 mm 0,0 UV-I 0 W/m 14,0 C 14,8 C 4,0 km/h (1 Bft) 0,00 %
02.08.2015 04:03 14,8 C 95 % 1016,8 hPa 0,0 l/m 0,0 km/h (0 Bft) N 8 0 min 0,000 mm 0,0 UV-I 0 W/m 14,0 C 14,8 C 0,0 km/h (0 Bft) 0,00 %
02.08.2015 04:08 14,8 C 95 % 1016,8 hPa 0,0 l/m 0,0 km/h (0 Bft) N 353 0 min 0,000 mm 0,0 UV-I 0 W/m 14,0 C 14,8 C 0,0 km/h (0 Bft) 0,00 %
02.08.2015 04:13 14,8 C 95 % 1016,6 hPa 0,0 l/m 4,7 km/h (1 Bft) NW 308 0 min 0,000 mm 0,0 UV-I 0 W/m 14,0 C 14,8 C 11,9 km/h (2 Bft) 0,00 %
02.08.2015 04:18 14,8 C 95 % 1016,7 hPa 0,0 l/m 0,0 km/h (0 Bft) O-NO 65 0 min 0,000 mm 0,0 UV-I 0 W/m 14,0 C 14,8 C 0,0 km/h (0 Bft) 0,00 %
02.08.2015 04:23 14,8 C 95 % 1016,8 hPa 0,0 l/m 1,8 km/h (1 Bft) NO 46 0 min 0,000 mm 0,0 UV-I 0 W/m 14,0 C 14,8 C 4,0 km/h (1 Bft) 0,00 %
02.08.2015 04:28 14,8 C 95 % 1016,7 hPa 0,0 l/m 0,0 km/h (0 Bft) NO 49 0 min 0,000 mm 0,0 UV-I 0 W/m 14,0 C 14,8 C 0,0 km/h (0 Bft) 0,00 %
02.08.2015 04:33 14,7 C 95 % 1016,9 hPa 0,0 l/m 0,4 km/h (0 Bft) W-SW 256 0 min 0,000 mm 0,0 UV-I 0 W/m 13,9 C 14,7 C 4,0 km/h (1 Bft) 0,00 %
02.08.2015 04:38 14,7 C 95 % 1016,9 hPa 0,0 l/m 0,0 km/h (0 Bft) N-NW 341 0 min 0,000 mm 0,0 UV-I 0 W/m 13,9 C 14,7 C 0,0 km/h (0 Bft) 0,00 %
02.08.2015 04:43 14,7 C 95 % 1016,9 hPa 0,0 l/m 1,4 km/h (1 Bft) N 349 0 min 0,000 mm 0,0 UV-I 0 W/m 13,9 C 14,7 C 4,0 km/h (1 Bft) 0,00 %
02.08.2015 04:48 14,7 C 95 % 1016,9 hPa 0,0 l/m 4,3 km/h (1 Bft) W 269 0 min 0,000 mm 0,0 UV-I 0 W/m 13,9 C 14,7 C 7,9 km/h (2 Bft) 0,00 %
02.08.2015 04:53 14,7 C 95 % 1016,9 hPa 0,0 l/m 0,4 km/h (0 Bft) N-NW 346 0 min 0,000 mm 0,0 UV-I 0 W/m 13,9 C 14,7 C 4,0 km/h (1 Bft) 0,00 %
02.08.2015 04:58 14,7 C 95 % 1017,0 hPa 0,0 l/m 0,7 km/h (0 Bft) N-NW 328 0 min 0,000 mm 0,0 UV-I 0 W/m 13,9 C 14,7 C 4,0 km/h (1 Bft) 0,00 %
02.08.2015 05:03 14,7 C 95 % 1017,0 hPa 0,0 l/m 0,0 km/h (0 Bft) NO 51 0 min 0,000 mm 0,0 UV-I 0 W/m 13,9 C 14,7 C 0,0 km/h (0 Bft) 0,00 %
02.08.2015 05:08 14,7 C 95 % 1017,0 hPa 0,0 l/m 5,8 km/h (2 Bft) W-NW 301 0 min 0,000 mm 0,0 UV-I 0 W/m 13,9 C 14,7 C 7,9 km/h (2 Bft) 0,00 %
02.08.2015 05:13 14,6 C 95 % 1017,1 hPa 0,0 l/m 0,0 km/h (0 Bft) O-NO 67 0 min 0,000 mm 0,0 UV-I 0 W/m 13,8 C 14,6 C 0,0 km/h (0 Bft) 0,00 %
02.08.2015 05:18 14,6 C 95 % 1017,3 hPa 0,0 l/m 0,0 km/h (0 Bft) N-NW 343 0 min 0,000 mm 0,0 UV-I 0 W/m 13,8 C 14,6 C 0,0 km/h (0 Bft) 0,00 %
02.08.2015 05:23 14,6 C 95 % 1017,2 hPa 0,0 l/m 0,0 km/h (0 Bft) NO 42 0 min 0,000 mm 0,0 UV-I 0 W/m 13,8 C 14,6 C 0,0 km/h (0 Bft) 0,00 %
02.08.2015 05:28 14,7 C 95 % 1017,2 hPa 0,0 l/m 3,2 km/h (1 Bft) W 267 0 min 0,000 mm 0,0 UV-I 0 W/m 13,9 C 14,7 C 7,9 km/h (2 Bft) 0,00 %
02.08.2015 05:33 14,6 C 95 % 1017,2 hPa 0,0 l/m 1,4 km/h (1 Bft) N-NW 330 0 min 0,000 mm 0,0 UV-I 0 W/m 13,8 C 14,6 C 4,0 km/h (1 Bft) 0,00 %
02.08.2015 05:38 14,6 C 95 % 1017,6 hPa 0,0 l/m 0,0 km/h (0 Bft) N-NW 340 0 min 0,000 mm 0,0 UV-I 0 W/m 13,8 C 14,6 C 0,0 km/h (0 Bft) 0,00 %
02.08.2015 05:43 14,6 C 96 % 1017,3 hPa 0,3 l/m 0,7 km/h (0 Bft) N 354 0 min 0,000 mm 0,0 UV-I 0 W/m 14,0 C 14,6 C 4,0 km/h (1 Bft) 0,00 %
02.08.2015 05:48 14,6 C 96 % 1017,2 hPa 0,0 l/m 0,4 km/h (0 Bft) N 350 0 min 0,000 mm 0,0 UV-I 0 W/m 14,0 C 14,6 C 4,0 km/h (1 Bft) 0,00 %
02.08.2015 05:53 14,6 C 96 % 1017,5 hPa 0,0 l/m 0,7 km/h (0 Bft) N-NW 344 0 min 0,000 mm 0,0 UV-I 0 W/m 14,0 C 14,6 C 4,0 km/h (1 Bft) 0,00 %
02.08.2015 05:58 14,6 C 96 % 1017,4 hPa 0,0 l/m 0,4 km/h (0 Bft) N 7 0 min 0,000 mm 0,0 UV-I 0 W/m 14,0 C 14,6 C 4,0 km/h (1 Bft) 0,00 %
02.08.2015 06:03 14,6 C 96 % 1017,5 hPa 0,0 l/m 0,0 km/h (0 Bft) O-NO 59 0 min 0,000 mm 0,0 UV-I 0 W/m 14,0 C 14,6 C 0,0 km/h (0 Bft) 0,00 %
02.08.2015 06:08 14,6 C 96 % 1017,5 hPa 0,0 l/m 0,4 km/h (0 Bft) W-NW 302 0 min 0,000 mm 0,0 UV-I 0 W/m 14,0 C 14,6 C 4,0 km/h (1 Bft) 0,00 %
02.08.2015 06:13 14,6 C 96 % 1017,5 hPa 0,0 l/m 0,0 km/h (0 Bft) N-NW 345 0 min 0,000 mm 0,0 UV-I 0 W/m 14,0 C 14,6 C 0,0 km/h (0 Bft) 0,00 %
02.08.2015 06:18 14,6 C 96 % 1017,6 hPa 0,0 l/m 0,4 km/h (0 Bft) N 5 0 min 0,000 mm 0,0 UV-I 1 W/m 14,0 C 14,6 C 4,0 km/h (1 Bft) 0,00 %
02.08.2015 06:23 14,6 C 96 % 1017,7 hPa 0,0 l/m 1,4 km/h (1 Bft) W 279 0 min 0,000 mm 0,0 UV-I 2 W/m 14,0 C 14,6 C 4,0 km/h (1 Bft) 0,00 %
02.08.2015 06:28 14,6 C 96 % 1017,6 hPa 0,3 l/m 0,0 km/h (0 Bft) NO 41 0 min 0,000 mm 0,0 UV-I 1 W/m 14,0 C 14,6 C 0,0 km/h (0 Bft) 0,00 %
02.08.2015 06:33 14,6 C 96 % 1017,8 hPa 0,0 l/m 0,0 km/h (0 Bft) NO 40 0 min 0,000 mm 0,0 UV-I 0 W/m 14,0 C 14,6 C 0,0 km/h (0 Bft) 0,00 %
02.08.2015 06:38 14,6 C 96 % 1017,9 hPa 0,0 l/m 0,0 km/h (0 Bft) NO 51 0 min 0,000 mm 0,0 UV-I 0 W/m 14,0 C 14,6 C 0,0 km/h (0 Bft) 0,00 %
02.08.2015 06:43 14,6 C 96 % 1018,1 hPa 0,0 l/m 0,0 km/h (0 Bft) W-SW 256 0 min 0,000 mm 0,0 UV-I 2 W/m 14,0 C 14,6 C 0,0 km/h (0 Bft) 0,00 %
02.08.2015 06:48 14,6 C 97 % 1018,1 hPa 0,0 l/m 0,0 km/h (0 Bft) NO 46 0 min 0,000 mm 0,0 UV-I 4 W/m 14,1 C 14,6 C 0,0 km/h (0 Bft) 0,00 %
02.08.2015 06:53 14,6 C 97 % 1018,1 hPa 0,0 l/m 0,0 km/h (0 Bft) N-NO 22 0 min 0,000 mm 0,0 UV-I 8 W/m 14,1 C 14,6 C 0,0 km/h (0 Bft) 0,00 %
02.08.2015 06:58 14,7 C 97 % 1018,0 hPa 0,0 l/m 0,0 km/h (0 Bft) N-NO 22 0 min 0,000 mm 0,0 UV-I 12 W/m 14,2 C 14,7 C 0,0 km/h (0 Bft) 0,00 %
02.08.2015 07:03 14,7 C 97 % 1018,2 hPa 0,6 l/m 1,4 km/h (1 Bft) W-SW 256 0 min 0,000 mm 0,0 UV-I 17 W/m 14,2 C 14,7 C 4,0 km/h (1 Bft) 0,00 %
02.08.2015 07:08 14,7 C 97 % 1018,0 hPa 0,3 l/m 0,0 km/h (0 Bft) N-NO 22 0 min 0,000 mm 0,0 UV-I 16 W/m 14,2 C 14,7 C 0,0 km/h (0 Bft) 0,00 %
02.08.2015 07:13 14,8 C 97 % 1018,2 hPa 0,0 l/m 0,0 km/h (0 Bft) NW 326 0 min 0,000 mm 0,0 UV-I 18 W/m 14,3 C 14,8 C 0,0 km/h (0 Bft) 0,00 %
02.08.2015 07:18 14,8 C 97 % 1018,2 hPa 0,0 l/m 0,0 km/h (0 Bft) N 356 0 min 0,000 mm 0,0 UV-I 20 W/m 14,3 C 14,8 C 0,0 km/h (0 Bft) 0,00 %
02.08.2015 07:23 14,8 C 97 % 1018,3 hPa 0,3 l/m 0,0 km/h (0 Bft) NO 55 0 min 0,000 mm 0,0 UV-I 22 W/m 14,3 C 14,8 C 0,0 km/h (0 Bft) 0,00 %
02.08.2015 07:28 14,8 C 97 % 1018,4 hPa 0,3 l/m 0,0 km/h (0 Bft) W-NW 303 0 min 0,000 mm 0,0 UV-I 26 W/m 14,3 C 14,8 C 0,0 km/h (0 Bft) 0,00 %
02.08.2015 07:33 14,8 C 97 % 1018,4 hPa 0,3 l/m 0,0 km/h (0 Bft) NO 40 0 min 0,000 mm 0,0 UV-I 30 W/m 14,3 C 14,8 C 0,0 km/h (0 Bft) 0,00 %
02.08.2015 07:38 14,8 C 97 % 1018,4 hPa 0,3 l/m 0,0 km/h (0 Bft) NO 54 0 min 0,000 mm 0,0 UV-I 34 W/m 14,3 C 14,8 C 0,0 km/h (0 Bft) 0,00 %
02.08.2015 07:43 14,8 C 97 % 1018,4 hPa 0,3 l/m 0,0 km/h (0 Bft) N 350 0 min 0,000 mm 0,0 UV-I 36 W/m 14,3 C 14,8 C 0,0 km/h (0 Bft) 0,00 %
02.08.2015 07:48 14,8 C 97 % 1018,6 hPa 0,0 l/m 0,0 km/h (0 Bft) NO 41 0 min 0,000 mm 0,0 UV-I 37 W/m 14,3 C 14,8 C 0,0 km/h (0 Bft) 0,00 %
02.08.2015 07:53 14,8 C 97 % 1018,6 hPa 0,3 l/m 0,0 km/h (0 Bft) NO 38 0 min 0,000 mm 0,0 UV-I 40 W/m 14,3 C 14,8 C 0,0 km/h (0 Bft) 0,00 %
02.08.2015 07:58 14,8 C 97 % 1018,6 hPa 0,0 l/m 0,0 km/h (0 Bft) NO 52 0 min 0,000 mm 0,0 UV-I 40 W/m 14,3 C 14,8 C 0,0 km/h (0 Bft) 0,00 %
02.08.2015 08:03 14,9 C 97 % 1018,6 hPa 0,3 l/m 0,0 km/h (0 Bft) N 353 0 min 0,000 mm 0,0 UV-I 40 W/m 14,4 C 14,9 C 0,0 km/h (0 Bft) 0,00 %
02.08.2015 08:08 14,9 C 97 % 1018,7 hPa 0,0 l/m 0,0 km/h (0 Bft) O-NO 59 0 min 0,000 mm 0,0 UV-I 40 W/m 14,4 C 14,9 C 0,0 km/h (0 Bft) 0,00 %
02.08.2015 08:13 14,9 C 98 % 1018,7 hPa 0,0 l/m 0,0 km/h (0 Bft) N 356 0 min 0,000 mm 0,0 UV-I 40 W/m 14,6 C 14,9 C 0,0 km/h (0 Bft) 0,00 %
02.08.2015 08:18 14,9 C 97 % 1018,6 hPa 0,3 l/m 1,4 km/h (1 Bft) NW 316 0 min 0,000 mm 0,0 UV-I 42 W/m 14,4 C 14,9 C 4,0 km/h (1 Bft) 0,00 %
02.08.2015 08:23 14,9 C 98 % 1018,7 hPa 0,0 l/m 0,0 km/h (0 Bft) NO 39 0 min 0,000 mm 0,0 UV-I 45 W/m 14,6 C 14,9 C 0,0 km/h (0 Bft) 0,00 %
02.08.2015 08:28 14,9 C 98 % 1018,7 hPa 0,3 l/m 0,0 km/h (0 Bft) O-NO 60 0 min 0,000 mm 0,0 UV-I 57 W/m 14,6 C 14,9 C 0,0 km/h (0 Bft) 0,00 %
02.08.2015 08:33 14,9 C 98 % 1018,8 hPa 0,0 l/m 0,0 km/h (0 Bft) N 355 0 min 0,000 mm 0,0 UV-I 78 W/m 14,6 C 14,9 C 0,0 km/h (0 Bft) 0,00 %
02.08.2015 08:38 14,9 C 97 % 1018,8 hPa 0,3 l/m 0,4 km/h (0 Bft) W 261 0 min 0,000 mm 1,0 UV-I 99 W/m 14,4 C 14,9 C 4,0 km/h (1 Bft) 0,00 %
02.08.2015 08:43 14,9 C 97 % 1018,9 hPa 0,3 l/m 0,4 km/h (0 Bft) N 7 0 min 0,000 mm 1,0 UV-I 113 W/m 14,4 C 14,9 C 4,0 km/h (1 Bft) 0,00 %
02.08.2015 08:48 15,0 C 97 % 1018,9 hPa 0,0 l/m 0,4 km/h (0 Bft) N-NO 33 0 min 0,000 mm 1,0 UV-I 124 W/m 14,5 C 15,0 C 4,0 km/h (1 Bft) 0,00 %
02.08.2015 08:53 15,1 C 97 % 1018,8 hPa 0,3 l/m 0,0 km/h (0 Bft) N 353 0 min 0,000 mm 1,0 UV-I 123 W/m 14,6 C 15,1 C 0,0 km/h (0 Bft) 0,00 %
02.08.2015 08:58 15,1 C 97 % 1018,8 hPa 0,0 l/m 4,0 km/h (1 Bft) NW 326 0 min 0,000 mm 1,0 UV-I 112 W/m 14,6 C 15,1 C 4,0 km/h (1 Bft) 0,00 %
02.08.2015 09:03 15,1 C 97 % 1019,0 hPa 0,0 l/m 1,4 km/h (1 Bft) W-SW 256 0 min 0,000 mm 1,0 UV-I 101 W/m 14,6 C 15,1 C 4,0 km/h (1 Bft) 0,00 %
02.08.2015 09:08 15,1 C 97 % 1018,8 hPa 0,0 l/m 0,0 km/h (0 Bft) NO 36 0 min 0,000 mm 1,0 UV-I 100 W/m 14,6 C 15,1 C 0,0 km/h (0 Bft) 0,00 %
02.08.2015 09:13 15,1 C 97 % 1018,9 hPa 0,0 l/m 1,8 km/h (1 Bft) N-NW 335 0 min 0,000 mm 1,0 UV-I 102 W/m 14,6 C 15,1 C 4,0 km/h (1 Bft) 0,00 %
02.08.2015 09:18 15,1 C 97 % 1018,9 hPa 0,0 l/m 0,0 km/h (0 Bft) O-NO 62 0 min 0,000 mm 1,0 UV-I 107 W/m 14,6 C 15,1 C 0,0 km/h (0 Bft) 0,00 %
02.08.2015 09:23 15,1 C 97 % 1019,1 hPa 0,0 l/m 0,0 km/h (0 Bft) N 353 0 min 0,000 mm 1,0 UV-I 110 W/m 14,6 C 15,1 C 0,0 km/h (0 Bft) 0,00 %
02.08.2015 09:28 15,2 C 96 % 1019,2 hPa 0,0 l/m 0,0 km/h (0 Bft) N 353 0 min 0,000 mm 1,0 UV-I 114 W/m 14,6 C 15,2 C 0,0 km/h (0 Bft) 0,00 %
02.08.2015 09:33 15,3 C 96 % 1019,0 hPa 0,0 l/m 0,0 km/h (0 Bft) NO 37 0 min 0,000 mm 1,0 UV-I 112 W/m 14,7 C 15,3 C 0,0 km/h (0 Bft) 0,00 %
02.08.2015 09:38 15,3 C 96 % 1019,2 hPa 0,0 l/m 0,0 km/h (0 Bft) O-NO 64 0 min 0,000 mm 1,0 UV-I 97 W/m 14,7 C 15,3 C 0,0 km/h (0 Bft) 0,00 %
02.08.2015 09:43 15,4 C 96 % 1019,2 hPa 0,0 l/m 0,0 km/h (0 Bft) N 354 0 min 0,000 mm 1,0 UV-I 98 W/m 14,8 C 15,4 C 0,0 km/h (0 Bft) 0,00 %
02.08.2015 09:48 15,4 C 96 % 1019,3 hPa 0,3 l/m 0,0 km/h (0 Bft) N-NW 338 0 min 0,000 mm 1,0 UV-I 94 W/m 14,8 C 15,4 C 0,0 km/h (0 Bft) 0,00 %
02.08.2015 09:53 15,4 C 96 % 1019,4 hPa 0,0 l/m 0,0 km/h (0 Bft) N 9 0 min 0,000 mm 1,0 UV-I 100 W/m 14,8 C 15,4 C 0,0 km/h (0 Bft) 0,00 %
02.08.2015 09:58 15,4 C 96 % 1019,4 hPa 0,0 l/m 0,0 km/h (0 Bft) O-NO 63 0 min 0,000 mm 1,0 UV-I 94 W/m 14,8 C 15,4 C 0,0 km/h (0 Bft) 0,00 %
02.08.2015 10:03 15,4 C 96 % 1019,4 hPa 0,3 l/m 2,9 km/h (1 Bft) W 259 0 min 0,000 mm 1,0 UV-I 103 W/m 14,8 C 15,4 C 4,0 km/h (1 Bft) 0,00 %
02.08.2015 10:08 15,4 C 96 % 1019,4 hPa 0,0 l/m 0,4 km/h (0 Bft) NO 52 0 min 0,000 mm 1,0 UV-I 120 W/m 14,8 C 15,4 C 4,0 km/h (1 Bft) 0,00 %
02.08.2015 10:13 15,4 C 96 % 1019,5 hPa 0,0 l/m 1,8 km/h (1 Bft) N-NO 27 0 min 0,000 mm 1,0 UV-I 132 W/m 14,8 C 15,4 C 4,0 km/h (1 Bft) 0,00 %
02.08.2015 10:18 15,4 C 96 % 1019,5 hPa 0,0 l/m 0,0 km/h (0 Bft) NO 45 0 min 0,000 mm 1,0 UV-I 139 W/m 14,8 C 15,4 C 0,0 km/h (0 Bft) 0,00 %
02.08.2015 10:23 15,5 C 96 % 1019,4 hPa 0,0 l/m 2,9 km/h (1 Bft) NW 326 0 min 0,000 mm 1,0 UV-I 149 W/m 14,9 C 15,5 C 7,9 km/h (2 Bft) 0,00 %
02.08.2015 10:28 15,5 C 95 % 1019,4 hPa 0,0 l/m 0,4 km/h (0 Bft) NW 309 0 min 0,000 mm 1,0 UV-I 145 W/m 14,7 C 15,5 C 4,0 km/h (1 Bft) 0,00 %
02.08.2015 10:33 15,5 C 95 % 1019,6 hPa 0,0 l/m 0,0 km/h (0 Bft) N-NW 330 0 min 0,000 mm 1,0 UV-I 136 W/m 14,7 C 15,5 C 0,0 km/h (0 Bft) 0,00 %
02.08.2015 10:38 15,4 C 95 % 1019,5 hPa 0,0 l/m 5,4 km/h (1 Bft) W 275 0 min 0,000 mm 1,0 UV-I 130 W/m 14,6 C 15,4 C 7,9 km/h (2 Bft) 0,00 %
02.08.2015 10:43 15,4 C 95 % 1019,7 hPa 0,0 l/m 0,0 km/h (0 Bft) NO 42 0 min 0,000 mm 1,0 UV-I 124 W/m 14,6 C 15,4 C 0,0 km/h (0 Bft) 0,00 %
02.08.2015 10:48 15,4 C 95 % 1019,7 hPa 0,0 l/m 0,0 km/h (0 Bft) NO 40 0 min 0,000 mm 1,0 UV-I 123 W/m 14,6 C 15,4 C 0,0 km/h (0 Bft) 0,00 %
02.08.2015 10:53 15,5 C 94 % 1019,9 hPa 0,0 l/m 0,0 km/h (0 Bft) N-NW 339 0 min 0,000 mm 1,0 UV-I 126 W/m 14,5 C 15,5 C 0,0 km/h (0 Bft) 0,00 %
02.08.2015 10:58 15,5 C 94 % 1020,0 hPa 0,0 l/m 1,8 km/h (1 Bft) N-NO 30 0 min 0,000 mm 1,0 UV-I 122 W/m 14,5 C 15,5 C 4,0 km/h (1 Bft) 0,00 %
02.08.2015 11:03 15,5 C 94 % 1019,8 hPa 0,0 l/m 0,0 km/h (0 Bft) NO 44 0 min 0,000 mm 1,0 UV-I 116 W/m 14,5 C 15,5 C 0,0 km/h (0 Bft) 0,00 %
02.08.2015 11:08 15,5 C 94 % 1020,0 hPa 0,3 l/m 0,0 km/h (0 Bft) N-NO 26 0 min 0,000 mm 1,0 UV-I 112 W/m 14,5 C 15,5 C 0,0 km/h (0 Bft) 0,00 %
02.08.2015 11:13 15,6 C 94 % 1020,1 hPa 0,0 l/m 0,0 km/h (0 Bft) N-NO 27 0 min 0,000 mm 1,0 UV-I 126 W/m 14,6 C 15,6 C 0,0 km/h (0 Bft) 0,00 %
02.08.2015 11:18 15,6 C 94 % 1020,2 hPa 0,0 l/m 0,0 km/h (0 Bft) NO 46 0 min 0,000 mm 1,0 UV-I 157 W/m 14,6 C 15,6 C 0,0 km/h (0 Bft) 0,00 %
02.08.2015 11:23 15,6 C 94 % 1020,3 hPa 0,3 l/m 0,0 km/h (0 Bft) N 351 0 min 0,000 mm 1,0 UV-I 161 W/m 14,6 C 15,6 C 0,0 km/h (0 Bft) 0,00 %
02.08.2015 11:28 15,6 C 94 % 1020,1 hPa 0,3 l/m 0,0 km/h (0 Bft) S 180 0 min 0,000 mm 1,0 UV-I 167 W/m 14,6 C 15,6 C 0,0 km/h (0 Bft) 0,00 %
02.08.2015 11:33 15,7 C 94 % 1020,2 hPa 0,0 l/m 0,0 km/h (0 Bft) N-NO 25 0 min 0,000 mm 1,0 UV-I 188 W/m 14,7 C 15,7 C 0,0 km/h (0 Bft) 0,00 %
02.08.2015 11:38 15,7 C 94 % 1020,3 hPa 0,3 l/m 0,0 km/h (0 Bft) O-NO 69 0 min 0,000 mm 1,0 UV-I 203 W/m 14,7 C 15,7 C 0,0 km/h (0 Bft) 0,00 %
02.08.2015 11:43 15,8 C 94 % 1020,2 hPa 0,0 l/m 0,0 km/h (0 Bft) N 350 0 min 0,000 mm 1,0 UV-I 174 W/m 14,8 C 15,8 C 0,0 km/h (0 Bft) 0,00 %
02.08.2015 11:48 15,8 C 94 % 1020,2 hPa 0,0 l/m 0,0 km/h (0 Bft) N 349 0 min 0,000 mm 1,0 UV-I 149 W/m 14,8 C 15,8 C 0,0 km/h (0 Bft) 0,00 %
02.08.2015 11:53 15,8 C 94 % 1020,4 hPa 0,0 l/m 0,0 km/h (0 Bft) NO 53 0 min 0,000 mm 1,0 UV-I 135 W/m 14,8 C 15,8 C 0,0 km/h (0 Bft) 0,00 %
02.08.2015 11:58 15,8 C 94 % 1020,3 hPa 0,0 l/m 0,0 km/h (0 Bft) N-NO 28 0 min 0,000 mm 1,0 UV-I 129 W/m 14,8 C 15,8 C 0,0 km/h (0 Bft) 0,00 %
02.08.2015 12:03 15,8 C 94 % 1020,4 hPa 0,0 l/m 0,0 km/h (0 Bft) NO 34 0 min 0,000 mm 1,0 UV-I 118 W/m 14,8 C 15,8 C 0,0 km/h (0 Bft) 0,00 %
02.08.2015 12:08 15,9 C 94 % 1020,4 hPa 0,0 l/m 0,0 km/h (0 Bft) NO 35 0 min 0,000 mm 1,0 UV-I 115 W/m 14,9 C 15,9 C 0,0 km/h (0 Bft) 0,00 %
02.08.2015 12:13 15,9 C 93 % 1020,4 hPa 0,0 l/m 0,0 km/h (0 Bft) NO 51 0 min 0,000 mm 1,0 UV-I 118 W/m 14,8 C 15,9 C 0,0 km/h (0 Bft) 0,00 %
02.08.2015 12:18 15,9 C 93 % 1020,7 hPa 0,0 l/m 1,4 km/h (1 Bft) W-SW 255 0 min 0,000 mm 1,0 UV-I 121 W/m 14,8 C 15,9 C 4,0 km/h (1 Bft) 0,00 %
02.08.2015 12:23 16,0 C 93 % 1020,5 hPa 0,0 l/m 0,0 km/h (0 Bft) N 352 0 min 0,000 mm 1,0 UV-I 124 W/m 14,9 C 16,0 C 0,0 km/h (0 Bft) 0,00 %
02.08.2015 12:28 16,0 C 94 % 1020,9 hPa 0,0 l/m 0,0 km/h (0 Bft) N-NW 330 0 min 0,000 mm 1,0 UV-I 122 W/m 15,0 C 16,0 C 0,0 km/h (0 Bft) 0,00 %
02.08.2015 12:33 15,9 C 93 % 1020,6 hPa 0,0 l/m 0,0 km/h (0 Bft) N 356 0 min 0,000 mm 1,0 UV-I 119 W/m 14,8 C 15,9 C 0,0 km/h (0 Bft) 0,00 %
02.08.2015 12:38 15,9 C 94 % 1020,7 hPa 0,0 l/m 0,0 km/h (0 Bft) O-NO 63 0 min 0,000 mm 1,0 UV-I 118 W/m 14,9 C 15,9 C 0,0 km/h (0 Bft) 0,00 %
02.08.2015 12:43 15,9 C 93 % 1020,6 hPa 0,0 l/m 0,0 km/h (0 Bft) W 275 0 min 0,000 mm 1,0 UV-I 134 W/m 14,8 C 15,9 C 0,0 km/h (0 Bft) 0,00 %
02.08.2015 12:48 15,9 C 93 % 1020,4 hPa 0,0 l/m 0,0 km/h (0 Bft) O-NO 65 0 min 0,000 mm 1,0 UV-I 158 W/m 14,8 C 15,9 C 0,0 km/h (0 Bft) 0,00 %
02.08.2015 12:53 16,0 C 93 % 1020,7 hPa 0,0 l/m 4,0 km/h (1 Bft) W-SW 255 0 min 0,000 mm 1,0 UV-I 198 W/m 14,9 C 16,0 C 7,9 km/h (2 Bft) 0,00 %
02.08.2015 12:58 16,0 C 93 % 1020,5 hPa 0,0 l/m 0,4 km/h (0 Bft) W-NW 287 0 min 0,000 mm 1,0 UV-I 228 W/m 14,9 C 16,0 C 4,0 km/h (1 Bft) 0,00 %
02.08.2015 13:03 16,2 C 93 % 1020,7 hPa 0,0 l/m 6,5 km/h (2 Bft) W-SW 256 0 min 0,000 mm 1,0 UV-I 236 W/m 15,1 C 16,2 C 7,9 km/h (2 Bft) 0,00 %
02.08.2015 13:08 16,3 C 92 % 1020,7 hPa 0,0 l/m 0,7 km/h (0 Bft) SW 222 0 min 0,000 mm 1,0 UV-I 246 W/m 15,0 C 16,3 C 4,0 km/h (1 Bft) 0,00 %
02.08.2015 13:13 16,5 C 92 % 1020,6 hPa 0,0 l/m 0,4 km/h (0 Bft) O-NO 62 0 min 0,000 mm 1,0 UV-I 223 W/m 15,2 C 16,5 C 4,0 km/h (1 Bft) 0,00 %
02.08.2015 13:18 16,5 C 91 % 1020,5 hPa 0,0 l/m 0,0 km/h (0 Bft) NO 45 0 min 0,000 mm 1,0 UV-I 193 W/m 15,0 C 16,5 C 0,0 km/h (0 Bft) 0,00 %
02.08.2015 13:23 16,5 C 91 % 1020,7 hPa 0,0 l/m 4,3 km/h (1 Bft) SW 216 0 min 0,000 mm 1,0 UV-I 171 W/m 15,0 C 16,5 C 7,9 km/h (2 Bft) 0,00 %
02.08.2015 13:28 16,6 C 90 % 1020,8 hPa 0,0 l/m 0,4 km/h (0 Bft) W-NW 296 0 min 0,000 mm 1,0 UV-I 174 W/m 15,0 C 16,6 C 4,0 km/h (1 Bft) 0,00 %
02.08.2015 13:33 16,5 C 90 % 1020,7 hPa 0,0 l/m 0,0 km/h (0 Bft) NW 323 0 min 0,000 mm 1,0 UV-I 190 W/m 14,9 C 16,5 C 0,0 km/h (0 Bft) 0,00 %
02.08.2015 13:38 16,5 C 90 % 1020,8 hPa 0,0 l/m 0,4 km/h (0 Bft) NO 44 0 min 0,000 mm 1,0 UV-I 199 W/m 14,9 C 16,5 C 4,0 km/h (1 Bft) 0,00 %
02.08.2015 13:43 16,5 C 90 % 1020,9 hPa 0,0 l/m 2,9 km/h (1 Bft) W-NW 299 0 min 0,000 mm 1,0 UV-I 208 W/m 14,9 C 16,5 C 4,0 km/h (1 Bft) 0,00 %
02.08.2015 13:48 16,6 C 90 % 1020,8 hPa 0,0 l/m 0,0 km/h (0 Bft) N-NO 33 0 min 0,000 mm 1,0 UV-I 214 W/m 15,0 C 16,6 C 0,0 km/h (0 Bft) 0,00 %
02.08.2015 13:53 16,6 C 90 % 1020,8 hPa 0,0 l/m 4,0 km/h (1 Bft) W-SW 256 0 min 0,000 mm 1,0 UV-I 221 W/m 15,0 C 16,6 C 4,0 km/h (1 Bft) 0,00 %
02.08.2015 13:58 16,7 C 89 % 1020,8 hPa 0,0 l/m 1,4 km/h (1 Bft) O 86 0 min 0,000 mm 1,0 UV-I 234 W/m 14,9 C 16,7 C 4,0 km/h (1 Bft) 0,00 %
02.08.2015 14:03 16,9 C 90 % 1020,7 hPa 0,0 l/m 0,4 km/h (0 Bft) NO 54 0 min 0,000 mm 1,0 UV-I 232 W/m 15,2 C 16,9 C 4,0 km/h (1 Bft) 0,00 %
02.08.2015 14:08 16,9 C 89 % 1020,7 hPa 0,0 l/m 0,7 km/h (0 Bft) N-NW 334 0 min 0,000 mm 1,0 UV-I 247 W/m 15,1 C 16,9 C 4,0 km/h (1 Bft) 0,00 %
02.08.2015 14:13 16,9 C 88 % 1020,9 hPa 0,0 l/m 3,2 km/h (1 Bft) W-SW 257 0 min 0,000 mm 1,0 UV-I 245 W/m 14,9 C 16,9 C 7,9 km/h (2 Bft) 0,00 %
02.08.2015 14:18 17,0 C 89 % 1020,5 hPa 0,0 l/m 4,0 km/h (1 Bft) W-NW 292 0 min 0,000 mm 1,0 UV-I 254 W/m 15,2 C 17,0 C 7,9 km/h (2 Bft) 0,00 %
02.08.2015 14:23 17,1 C 89 % 1020,6 hPa 0,0 l/m 6,8 km/h (2 Bft) W-SW 247 0 min 0,000 mm 1,0 UV-I 262 W/m 15,3 C 16,9 C 11,9 km/h (2 Bft) 0,00 %
02.08.2015 14:28 17,1 C 88 % 1020,7 hPa 0,0 l/m 4,3 km/h (1 Bft) W-SW 256 0 min 0,000 mm 1,0 UV-I 245 W/m 15,1 C 17,1 C 7,9 km/h (2 Bft) 0,00 %
02.08.2015 14:33 17,1 C 88 % 1020,6 hPa 0,0 l/m 0,4 km/h (0 Bft) N-NW 332 0 min 0,000 mm 1,0 UV-I 220 W/m 15,1 C 17,1 C 4,0 km/h (1 Bft) 0,00 %
02.08.2015 14:38 17,2 C 87 % 1020,7 hPa 0,0 l/m 0,0 km/h (0 Bft) N-NO 30 0 min 0,000 mm 1,0 UV-I 226 W/m 15,0 C 17,2 C 0,0 km/h (0 Bft) 0,00 %
02.08.2015 14:43 17,2 C 87 % 1020,6 hPa 0,0 l/m 4,3 km/h (1 Bft) N 355 0 min 0,000 mm 1,0 UV-I 235 W/m 15,0 C 17,2 C 7,9 km/h (2 Bft) 0,00 %
02.08.2015 14:48 17,3 C 87 % 1020,7 hPa 0,0 l/m 0,4 km/h (0 Bft) N 356 0 min 0,000 mm 1,0 UV-I 223 W/m 15,1 C 17,3 C 4,0 km/h (1 Bft) 0,00 %
02.08.2015 14:53 17,4 C 87 % 1020,9 hPa 0,0 l/m 0,0 km/h (0 Bft) NO 42 0 min 0,000 mm 1,0 UV-I 222 W/m 15,2 C 17,4 C 0,0 km/h (0 Bft) 0,00 %
02.08.2015 14:58 17,5 C 86 % 1020,6 hPa 0,0 l/m 0,0 km/h (0 Bft) N 357 0 min 0,000 mm 1,0 UV-I 202 W/m 15,1 C 17,5 C 0,0 km/h (0 Bft) 0,00 %
02.08.2015 15:03 17,6 C 86 % 1020,7 hPa 0,0 l/m 0,0 km/h (0 Bft) N-NO 29 0 min 0,000 mm 1,0 UV-I 284 W/m 15,2 C 17,6 C 0,0 km/h (0 Bft) 0,00 %
02.08.2015 15:08 17,6 C 85 % 1020,8 hPa 0,0 l/m 0,0 km/h (0 Bft) N-NW 348 0 min 0,000 mm 1,0 UV-I 221 W/m 15,0 C 17,6 C 0,0 km/h (0 Bft) 0,00 %
02.08.2015 15:13 17,7 C 84 % 1020,8 hPa 0,0 l/m 0,0 km/h (0 Bft) NO 40 0 min 0,000 mm 1,0 UV-I 254 W/m 15,0 C 17,7 C 0,0 km/h (0 Bft) 0,00 %
02.08.2015 15:18 17,8 C 84 % 1020,8 hPa 0,0 l/m 0,4 km/h (0 Bft) W-SW 256 0 min 0,000 mm 1,0 UV-I 239 W/m 15,1 C 17,8 C 4,0 km/h (1 Bft) 0,00 %
02.08.2015 15:23 17,8 C 84 % 1020,9 hPa 0,0 l/m 0,0 km/h (0 Bft) NO 36 0 min 0,000 mm 1,0 UV-I 220 W/m 15,1 C 17,8 C 0,0 km/h (0 Bft) 0,00 %
02.08.2015 15:28 17,9 C 83 % 1020,7 hPa 0,0 l/m 0,0 km/h (0 Bft) O-NO 67 0 min 0,000 mm 1,0 UV-I 223 W/m 15,0 C 17,9 C 0,0 km/h (0 Bft) 0,00 %
02.08.2015 15:33 17,8 C 83 % 1020,8 hPa 0,0 l/m 0,4 km/h (0 Bft) W-NW 297 0 min 0,000 mm 1,0 UV-I 227 W/m 14,9 C 17,8 C 4,0 km/h (1 Bft) 0,00 %
02.08.2015 15:38 17,9 C 82 % 1020,8 hPa 0,0 l/m 0,0 km/h (0 Bft) N 355 0 min 0,000 mm 1,0 UV-I 229 W/m 14,8 C 17,9 C 0,0 km/h (0 Bft) 0,00 %
02.08.2015 15:43 18,0 C 81 % 1020,9 hPa 0,0 l/m 0,0 km/h (0 Bft) N-NO 31 0 min 0,000 mm 1,0 UV-I 237 W/m 14,7 C 18,0 C 0,0 km/h (0 Bft) 0,00 %
02.08.2015 15:48 18,1 C 81 % 1020,8 hPa 0,0 l/m 0,4 km/h (0 Bft) N 351 0 min 0,000 mm 1,0 UV-I 213 W/m 14,8 C 18,1 C 4,0 km/h (1 Bft) 0,00 %
02.08.2015 15:53 18,1 C 81 % 1020,8 hPa 0,0 l/m 0,7 km/h (0 Bft) N-NW 336 0 min 0,000 mm 1,0 UV-I 210 W/m 14,8 C 18,1 C 4,0 km/h (1 Bft) 0,00 %
02.08.2015 15:58 18,0 C 82 % 1020,8 hPa 0,0 l/m 0,7 km/h (0 Bft) W-NW 287 0 min 0,000 mm 1,0 UV-I 228 W/m 14,9 C 18,0 C 4,0 km/h (1 Bft) 0,00 %
02.08.2015 16:03 17,9 C 82 % 1020,9 hPa 0,0 l/m 0,0 km/h (0 Bft) N-NW 343 0 min 0,000 mm 1,0 UV-I 273 W/m 14,8 C 17,9 C 0,0 km/h (0 Bft) 0,00 %
02.08.2015 16:08 17,9 C 81 % 1021,0 hPa 0,0 l/m 0,0 km/h (0 Bft) NO 49 0 min 0,000 mm 1,0 UV-I 270 W/m 14,6 C 17,9 C 0,0 km/h (0 Bft) 0,00 %
02.08.2015 16:13 18,2 C 80 % 1020,7 hPa 0,0 l/m 0,0 km/h (0 Bft) N-NO 32 0 min 0,000 mm 1,0 UV-I 272 W/m 14,7 C 18,2 C 0,0 km/h (0 Bft) 0,00 %
02.08.2015 16:18 18,5 C 78 % 1020,8 hPa 0,0 l/m 0,0 km/h (0 Bft) N 355 0 min 0,000 mm 1,0 UV-I 284 W/m 14,6 C 18,5 C 0,0 km/h (0 Bft) 0,00 %
02.08.2015 16:23 18,8 C 76 % 1020,7 hPa 0,0 l/m 0,0 km/h (0 Bft) N-NO 26 0 min 0,000 mm 2,0 UV-I 348 W/m 14,5 C 18,8 C 0,0 km/h (0 Bft) 0,00 %
02.08.2015 16:28 19,1 C 78 % 1020,7 hPa 0,0 l/m 0,0 km/h (0 Bft) N-NO 32 5 min 0,000 mm 2,0 UV-I 391 W/m 15,2 C 19,1 C 0,0 km/h (0 Bft) 0,00 %
02.08.2015 16:33 19,4 C 75 % 1020,7 hPa 0,0 l/m 1,4 km/h (1 Bft) N-NW 330 5 min 0,000 mm 2,0 UV-I 411 W/m 14,8 C 19,4 C 4,0 km/h (1 Bft) 0,00 %
02.08.2015 16:38 19,6 C 74 % 1020,6 hPa 0,0 l/m 0,0 km/h (0 Bft) NO 49 5 min 0,000 mm 2,0 UV-I 384 W/m 14,8 C 19,6 C 0,0 km/h (0 Bft) 0,00 %
02.08.2015 16:43 19,7 C 74 % 1020,7 hPa 0,0 l/m 0,0 km/h (0 Bft) N 349 5 min 0,000 mm 1,0 UV-I 365 W/m 14,9 C 19,7 C 0,0 km/h (0 Bft) 0,00 %
02.08.2015 16:48 19,8 C 72 % 1021,0 hPa 0,0 l/m 0,4 km/h (0 Bft) N-NW 332 5 min 0,000 mm 1,0 UV-I 323 W/m 14,6 C 19,8 C 4,0 km/h (1 Bft) 0,00 %
02.08.2015 16:53 19,7 C 73 % 1020,7 hPa 0,0 l/m 1,8 km/h (1 Bft) W-NW 287 5 min 0,000 mm 1,0 UV-I 317 W/m 14,7 C 19,7 C 4,0 km/h (1 Bft) 0,00 %
02.08.2015 16:58 19,7 C 73 % 1020,8 hPa 0,0 l/m 0,0 km/h (0 Bft) NO 38 0 min 0,000 mm 1,0 UV-I 303 W/m 14,7 C 19,7 C 0,0 km/h (0 Bft) 0,00 %
02.08.2015 17:03 19,7 C 72 % 1020,8 hPa 0,0 l/m 0,0 km/h (0 Bft) NO 48 0 min 0,000 mm 1,0 UV-I 291 W/m 14,5 C 19,7 C 0,0 km/h (0 Bft) 0,00 %
02.08.2015 17:08 19,7 C 73 % 1020,7 hPa 0,0 l/m 0,0 km/h (0 Bft) N-NO 29 0 min 0,000 mm 1,0 UV-I 295 W/m 14,7 C 19,7 C 0,0 km/h (0 Bft) 0,00 %
02.08.2015 17:13 19,8 C 72 % 1020,8 hPa 0,0 l/m 0,0 km/h (0 Bft) N-NW 328 0 min 0,000 mm 1,0 UV-I 246 W/m 14,6 C 19,8 C 0,0 km/h (0 Bft) 0,00 %
02.08.2015 17:18 19,8 C 73 % 1020,7 hPa 0,0 l/m 0,4 km/h (0 Bft) W-NW 291 0 min 0,000 mm 1,0 UV-I 230 W/m 14,8 C 19,8 C 4,0 km/h (1 Bft) 0,00 %
02.08.2015 17:23 19,7 C 73 % 1020,6 hPa 0,0 l/m 0,0 km/h (0 Bft) O-NO 61 0 min 0,000 mm 1,0 UV-I 186 W/m 14,7 C 19,7 C 0,0 km/h (0 Bft) 0,00 %
02.08.2015 17:28 19,6 C 72 % 1020,6 hPa 0,0 l/m 0,0 km/h (0 Bft) NO 39 0 min 0,000 mm 1,0 UV-I 160 W/m 14,4 C 19,6 C 0,0 km/h (0 Bft) 0,00 %
02.08.2015 17:33 19,4 C 73 % 1020,6 hPa 0,0 l/m 0,0 km/h (0 Bft) N-NO 25 0 min 0,000 mm 1,0 UV-I 168 W/m 14,4 C 19,4 C 0,0 km/h (0 Bft) 0,00 %
02.08.2015 17:38 19,4 C 75 % 1020,5 hPa 0,0 l/m 0,0 km/h (0 Bft) NO 38 0 min 0,000 mm 1,0 UV-I 164 W/m 14,8 C 19,4 C 0,0 km/h (0 Bft) 0,00 %
02.08.2015 17:43 19,4 C 74 % 1020,6 hPa 0,0 l/m 0,0 km/h (0 Bft) NO 42 0 min 0,000 mm 1,0 UV-I 159 W/m 14,6 C 19,4 C 0,0 km/h (0 Bft) 0,00 %
02.08.2015 17:48 19,4 C 73 % 1020,3 hPa 0,0 l/m 0,0 km/h (0 Bft) N-NO 26 0 min 0,000 mm 1,0 UV-I 156 W/m 14,4 C 19,4 C 0,0 km/h (0 Bft) 0,00 %
02.08.2015 17:53 19,4 C 73 % 1020,4 hPa 0,0 l/m 0,0 km/h (0 Bft) NO 42 0 min 0,000 mm 1,0 UV-I 168 W/m 14,4 C 19,4 C 0,0 km/h (0 Bft) 0,00 %
02.08.2015 17:58 19,5 C 72 % 1020,4 hPa 0,0 l/m 0,0 km/h (0 Bft) NO 35 0 min 0,000 mm 1,0 UV-I 183 W/m 14,3 C 19,5 C 0,0 km/h (0 Bft) 0,00 %
02.08.2015 18:03 19,6 C 72 % 1020,4 hPa 0,0 l/m 0,0 km/h (0 Bft) NO 36 0 min 0,000 mm 1,0 UV-I 195 W/m 14,4 C 19,6 C 0,0 km/h (0 Bft) 0,00 %
02.08.2015 18:08 19,6 C 72 % 1020,4 hPa 0,0 l/m 0,0 km/h (0 Bft) N 355 0 min 0,000 mm 1,0 UV-I 198 W/m 14,4 C 19,6 C 0,0 km/h (0 Bft) 0,00 %
02.08.2015 18:13 19,7 C 71 % 1020,3 hPa 0,0 l/m 0,0 km/h (0 Bft) N 353 0 min 0,000 mm 1,0 UV-I 165 W/m 14,3 C 19,7 C 0,0 km/h (0 Bft) 0,00 %
02.08.2015 18:19 19,7 C 72 % 1020,4 hPa 0,0 l/m 0,0 km/h (0 Bft) NO 46 0 min 0,000 mm 1,0 UV-I 155 W/m 14,5 C 19,7 C 0,0 km/h (0 Bft) 0,00 %
02.08.2015 18:24 19,7 C 72 % 1020,3 hPa 0,0 l/m 0,0 km/h (0 Bft) N-NO 29 0 min 0,000 mm 1,0 UV-I 170 W/m 14,5 C 19,7 C 0,0 km/h (0 Bft) 0,00 %
02.08.2015 18:29 19,6 C 71 % 1020,3 hPa 0,0 l/m 0,0 km/h (0 Bft) NO 35 5 min 0,000 mm 1,0 UV-I 184 W/m 14,2 C 19,6 C 0,0 km/h (0 Bft) 0,00 %
02.08.2015 18:34 19,6 C 72 % 1020,2 hPa 0,0 l/m 0,0 km/h (0 Bft) NO 56 5 min 0,000 mm 1,0 UV-I 210 W/m 14,4 C 19,6 C 0,0 km/h (0 Bft) 0,00 %
02.08.2015 18:39 19,6 C 72 % 1020,2 hPa 0,0 l/m 0,0 km/h (0 Bft) O-NO 60 5 min 0,000 mm 1,0 UV-I 213 W/m 14,4 C 19,6 C 0,0 km/h (0 Bft) 0,00 %
02.08.2015 18:44 19,7 C 71 % 1020,2 hPa 0,0 l/m 0,0 km/h (0 Bft) O-NO 68 5 min 0,000 mm 1,0 UV-I 206 W/m 14,3 C 19,7 C 0,0 km/h (0 Bft) 0,00 %
02.08.2015 18:49 19,7 C 71 % 1020,3 hPa 0,0 l/m 0,0 km/h (0 Bft) NO 43 5 min 0,000 mm 1,0 UV-I 204 W/m 14,3 C 19,7 C 0,0 km/h (0 Bft) 0,00 %
02.08.2015 18:54 19,8 C 69 % 1020,1 hPa 0,0 l/m 0,0 km/h (0 Bft) NO 45 5 min 0,000 mm 1,0 UV-I 222 W/m 13,9 C 19,8 C 0,0 km/h (0 Bft) 0,00 %
02.08.2015 18:59 20,0 C 69 % 1020,0 hPa 0,0 l/m 0,0 km/h (0 Bft) O-NO 61 5 min 0,000 mm 1,0 UV-I 198 W/m 14,1 C 20,0 C 0,0 km/h (0 Bft) 0,00 %
02.08.2015 19:04 20,1 C 70 % 1020,1 hPa 0,0 l/m 0,0 km/h (0 Bft) O-NO 78 5 min 0,000 mm 1,0 UV-I 177 W/m 14,5 C 20,1 C 0,0 km/h (0 Bft) 0,00 %
02.08.2015 19:09 20,2 C 70 % 1020,0 hPa 0,0 l/m 1,8 km/h (1 Bft) O-SO 121 5 min 0,000 mm 1,0 UV-I 152 W/m 14,5 C 20,2 C 4,0 km/h (1 Bft) 0,00 %
02.08.2015 19:14 20,1 C 70 % 1020,0 hPa 0,0 l/m 0,0 km/h (0 Bft) NO 51 5 min 0,000 mm 1,0 UV-I 157 W/m 14,5 C 20,1 C 0,0 km/h (0 Bft) 0,00 %
02.08.2015 19:19 20,0 C 71 % 1020,0 hPa 0,0 l/m 0,0 km/h (0 Bft) O 100 5 min 0,000 mm 1,0 UV-I 156 W/m 14,6 C 20,0 C 0,0 km/h (0 Bft) 0,00 %
02.08.2015 19:24 19,8 C 72 % 1020,0 hPa 0,0 l/m 0,0 km/h (0 Bft) O-SO 107 5 min 0,000 mm 0,0 UV-I 157 W/m 14,6 C 19,8 C 0,0 km/h (0 Bft) 0,00 %
02.08.2015 19:29 19,7 C 73 % 1020,0 hPa 0,0 l/m 0,4 km/h (0 Bft) O 98 5 min 0,000 mm 0,0 UV-I 150 W/m 14,7 C 19,7 C 4,0 km/h (1 Bft) 0,00 %
02.08.2015 19:34 19,5 C 73 % 1020,1 hPa 0,0 l/m 0,0 km/h (0 Bft) O 96 5 min 0,000 mm 0,0 UV-I 118 W/m 14,5 C 19,5 C 0,0 km/h (0 Bft) 0,00 %
02.08.2015 19:39 19,2 C 73 % 1019,8 hPa 0,0 l/m 0,0 km/h (0 Bft) NO 53 5 min 0,000 mm 0,0 UV-I 137 W/m 14,2 C 19,2 C 0,0 km/h (0 Bft) 0,00 %
02.08.2015 19:44 19,0 C 75 % 1019,9 hPa 0,0 l/m 0,4 km/h (0 Bft) O 94 5 min 0,000 mm 0,0 UV-I 78 W/m 14,5 C 19,0 C 4,0 km/h (1 Bft) 0,00 %
02.08.2015 19:49 18,7 C 76 % 1019,8 hPa 0,0 l/m 0,0 km/h (0 Bft) O-NO 60 0 min 0,000 mm 0,0 UV-I 57 W/m 14,4 C 18,7 C 0,0 km/h (0 Bft) 0,00 %
02.08.2015 19:54 18,4 C 79 % 1019,9 hPa 0,0 l/m 0,0 km/h (0 Bft) O 80 0 min 0,000 mm 0,0 UV-I 46 W/m 14,7 C 18,4 C 0,0 km/h (0 Bft) 0,00 %
02.08.2015 19:59 18,0 C 82 % 1019,9 hPa 0,0 l/m 0,0 km/h (0 Bft) NO 52 0 min 0,000 mm 0,0 UV-I 34 W/m 14,9 C 18,0 C 0,0 km/h (0 Bft) 0,00 %
02.08.2015 20:04 17,7 C 82 % 1019,9 hPa 0,0 l/m 0,0 km/h (0 Bft) O 82 0 min 0,000 mm 0,0 UV-I 25 W/m 14,6 C 17,7 C 0,0 km/h (0 Bft) 0,00 %
02.08.2015 20:09 17,4 C 83 % 1019,7 hPa 0,0 l/m 0,0 km/h (0 Bft) O-NO 73 0 min 0,000 mm 0,0 UV-I 20 W/m 14,5 C 17,4 C 0,0 km/h (0 Bft) 0,00 %
02.08.2015 20:14 17,2 C 84 % 1019,8 hPa 0,0 l/m 0,0 km/h (0 Bft) NO 38 0 min 0,000 mm 0,0 UV-I 11 W/m 14,5 C 17,2 C 0,0 km/h (0 Bft) 0,00 %
02.08.2015 20:19 17,1 C 85 % 1019,9 hPa 0,0 l/m 0,0 km/h (0 Bft) O-NO 76 0 min 0,000 mm 0,0 UV-I 7 W/m 14,6 C 17,1 C 0,0 km/h (0 Bft) 0,00 %
02.08.2015 20:24 16,9 C 85 % 1019,8 hPa 0,0 l/m 0,0 km/h (0 Bft) O-NO 67 0 min 0,000 mm 0,0 UV-I 3 W/m 14,4 C 16,9 C 0,0 km/h (0 Bft) 0,00 %
02.08.2015 20:29 16,9 C 85 % 1019,8 hPa 0,0 l/m 0,0 km/h (0 Bft) O-NO 68 0 min 0,000 mm 0,0 UV-I 0 W/m 14,4 C 16,9 C 0,0 km/h (0 Bft) 0,00 %
02.08.2015 20:34 16,9 C 86 % 1020,1 hPa 0,0 l/m 0,0 km/h (0 Bft) NO 54 0 min 0,000 mm 0,0 UV-I 0 W/m 14,5 C 16,9 C 0,0 km/h (0 Bft) 0,00 %
02.08.2015 20:39 16,8 C 87 % 1020,1 hPa 0,0 l/m 0,0 km/h (0 Bft) O-NO 67 0 min 0,000 mm 0,0 UV-I 0 W/m 14,6 C 16,8 C 0,0 km/h (0 Bft) 0,00 %
02.08.2015 20:44 16,8 C 87 % 1020,3 hPa 0,0 l/m 0,0 km/h (0 Bft) NO 52 0 min 0,000 mm 0,0 UV-I 0 W/m 14,6 C 16,8 C 0,0 km/h (0 Bft) 0,00 %
02.08.2015 20:49 16,8 C 88 % 1020,3 hPa 0,0 l/m 0,0 km/h (0 Bft) O 99 0 min 0,000 mm 0,0 UV-I 0 W/m 14,8 C 16,8 C 0,0 km/h (0 Bft) 0,00 %
02.08.2015 20:54 16,8 C 88 % 1020,3 hPa 0,0 l/m 0,0 km/h (0 Bft) O-NO 61 0 min 0,000 mm 0,0 UV-I 0 W/m 14,8 C 16,8 C 0,0 km/h (0 Bft) 0,00 %
02.08.2015 20:59 16,7 C 89 % 1020,3 hPa 0,0 l/m 0,0 km/h (0 Bft) NO 52 0 min 0,000 mm 0,0 UV-I 0 W/m 14,9 C 16,7 C 0,0 km/h (0 Bft) 0,00 %
02.08.2015 21:04 16,7 C 89 % 1020,4 hPa 0,0 l/m 0,0 km/h (0 Bft) NO 53 0 min 0,000 mm 0,0 UV-I 0 W/m 14,9 C 16,7 C 0,0 km/h (0 Bft) 0,00 %
02.08.2015 21:09 16,6 C 90 % 1020,6 hPa 0,0 l/m 0,0 km/h (0 Bft) NO 45 0 min 0,000 mm 0,0 UV-I 0 W/m 15,0 C 16,6 C 0,0 km/h (0 Bft) 0,00 %
02.08.2015 21:14 16,6 C 90 % 1020,7 hPa 0,0 l/m 0,0 km/h (0 Bft) NO 47 0 min 0,000 mm 0,0 UV-I 0 W/m 15,0 C 16,6 C 0,0 km/h (0 Bft) 0,00 %
02.08.2015 21:19 16,6 C 90 % 1020,8 hPa 0,0 l/m 0,0 km/h (0 Bft) NO 54 0 min 0,000 mm 0,0 UV-I 0 W/m 15,0 C 16,6 C 0,0 km/h (0 Bft) 0,00 %
02.08.2015 21:24 16,5 C 90 % 1020,6 hPa 0,0 l/m 0,0 km/h (0 Bft) O-NO 58 0 min 0,000 mm 0,0 UV-I 0 W/m 14,9 C 16,5 C 0,0 km/h (0 Bft) 0,00 %
02.08.2015 21:29 16,5 C 91 % 1020,6 hPa 0,0 l/m 0,0 km/h (0 Bft) NO 55 0 min 0,000 mm 0,0 UV-I 0 W/m 15,0 C 16,5 C 0,0 km/h (0 Bft) 0,00 %
02.08.2015 21:34 16,4 C 91 % 1020,8 hPa 0,0 l/m 0,0 km/h (0 Bft) NO 56 0 min 0,000 mm 0,0 UV-I 0 W/m 14,9 C 16,4 C 0,0 km/h (0 Bft) 0,00 %
02.08.2015 21:39 16,3 C 91 % 1020,7 hPa 0,0 l/m 0,0 km/h (0 Bft) NO 46 0 min 0,000 mm 0,0 UV-I 0 W/m 14,8 C 16,3 C 0,0 km/h (0 Bft) 0,00 %
02.08.2015 21:44 16,2 C 91 % 1021,0 hPa 0,0 l/m 0,0 km/h (0 Bft) NO 48 0 min 0,000 mm 0,0 UV-I 0 W/m 14,7 C 16,2 C 0,0 km/h (0 Bft) 0,00 %
02.08.2015 21:49 16,1 C 92 % 1020,9 hPa 0,0 l/m 0,0 km/h (0 Bft) NO 54 0 min 0,000 mm 0,0 UV-I 0 W/m 14,8 C 16,1 C 0,0 km/h (0 Bft) 0,00 %
02.08.2015 21:54 16,1 C 92 % 1020,8 hPa 0,0 l/m 0,0 km/h (0 Bft) O-NO 61 0 min 0,000 mm 0,0 UV-I 0 W/m 14,8 C 16,1 C 0,0 km/h (0 Bft) 0,00 %
02.08.2015 21:59 16,1 C 93 % 1020,9 hPa 0,0 l/m 0,0 km/h (0 Bft) NO 49 0 min 0,000 mm 0,0 UV-I 0 W/m 15,0 C 16,1 C 0,0 km/h (0 Bft) 0,00 %
02.08.2015 22:04 16,0 C 93 % 1020,9 hPa 0,0 l/m 0,0 km/h (0 Bft) NO 51 0 min 0,000 mm 0,0 UV-I 0 W/m 14,9 C 16,0 C 0,0 km/h (0 Bft) 0,00 %
02.08.2015 22:09 16,0 C 94 % 1020,9 hPa 0,0 l/m 0,0 km/h (0 Bft) NO 45 0 min 0,000 mm 0,0 UV-I 0 W/m 15,0 C 16,0 C 0,0 km/h (0 Bft) 0,00 %
02.08.2015 22:14 15,9 C 94 % 1020,9 hPa 0,0 l/m 0,0 km/h (0 Bft) NO 56 0 min 0,000 mm 0,0 UV-I 0 W/m 14,9 C 15,9 C 0,0 km/h (0 Bft) 0,00 %
02.08.2015 22:19 15,7 C 94 % 1020,9 hPa 0,0 l/m 0,0 km/h (0 Bft) O-NO 74 0 min 0,000 mm 0,0 UV-I 0 W/m 14,7 C 15,7 C 0,0 km/h (0 Bft) 0,00 %
02.08.2015 22:24 15,6 C 94 % 1020,8 hPa 0,0 l/m 0,0 km/h (0 Bft) O 82 0 min 0,000 mm 0,0 UV-I 0 W/m 14,6 C 15,6 C 0,0 km/h (0 Bft) 0,00 %
02.08.2015 22:29 15,6 C 94 % 1020,8 hPa 0,0 l/m 0,0 km/h (0 Bft) SO 131 0 min 0,000 mm 0,0 UV-I 0 W/m 14,6 C 15,6 C 0,0 km/h (0 Bft) 0,00 %
02.08.2015 22:34 15,6 C 94 % 1020,7 hPa 0,0 l/m 1,4 km/h (1 Bft) O-SO 115 0 min 0,000 mm 0,0 UV-I 0 W/m 14,6 C 15,6 C 4,0 km/h (1 Bft) 0,00 %
02.08.2015 22:39 15,5 C 95 % 1020,8 hPa 0,0 l/m 0,0 km/h (0 Bft) O-SO 102 0 min 0,000 mm 0,0 UV-I 0 W/m 14,7 C 15,5 C 0,0 km/h (0 Bft) 0,00 %
02.08.2015 22:44 15,5 C 95 % 1020,9 hPa 0,0 l/m 0,0 km/h (0 Bft) NO 36 0 min 0,000 mm 0,0 UV-I 0 W/m 14,7 C 15,5 C 0,0 km/h (0 Bft) 0,00 %
02.08.2015 22:49 15,4 C 95 % 1021,0 hPa 0,0 l/m 1,8 km/h (1 Bft) O-SO 119 0 min 0,000 mm 0,0 UV-I 0 W/m 14,6 C 15,4 C 4,0 km/h (1 Bft) 0,00 %
02.08.2015 22:54 15,4 C 95 % 1020,9 hPa 0,0 l/m 0,0 km/h (0 Bft) NO 47 0 min 0,000 mm 0,0 UV-I 0 W/m 14,6 C 15,4 C 0,0 km/h (0 Bft) 0,00 %
02.08.2015 22:59 15,3 C 95 % 1021,0 hPa 0,0 l/m 0,0 km/h (0 Bft) O 82 0 min 0,000 mm 0,0 UV-I 0 W/m 14,5 C 15,3 C 0,0 km/h (0 Bft) 0,00 %
02.08.2015 23:04 15,2 C 95 % 1021,0 hPa 0,0 l/m 0,0 km/h (0 Bft) NO 51 0 min 0,000 mm 0,0 UV-I 0 W/m 14,4 C 15,2 C 0,0 km/h (0 Bft) 0,00 %
02.08.2015 23:09 15,1 C 95 % 1021,1 hPa 0,0 l/m 0,0 km/h (0 Bft) NO 49 0 min 0,000 mm 0,0 UV-I 0 W/m 14,3 C 15,1 C 0,0 km/h (0 Bft) 0,00 %
02.08.2015 23:14 15,0 C 96 % 1021,0 hPa 0,0 l/m 0,0 km/h (0 Bft) O-NO 69 0 min 0,000 mm 0,0 UV-I 0 W/m 14,4 C 15,0 C 0,0 km/h (0 Bft) 0,00 %
02.08.2015 23:19 14,8 C 96 % 1021,1 hPa 0,0 l/m 0,0 km/h (0 Bft) O-NO 59 0 min 0,000 mm 0,0 UV-I 0 W/m 14,2 C 14,8 C 0,0 km/h (0 Bft) 0,00 %
02.08.2015 23:24 14,8 C 96 % 1020,9 hPa 0,0 l/m 0,0 km/h (0 Bft) O-NO 71 0 min 0,000 mm 0,0 UV-I 0 W/m 14,2 C 14,8 C 0,0 km/h (0 Bft) 0,00 %
02.08.2015 23:29 14,7 C 96 % 1021,0 hPa 0,0 l/m 0,0 km/h (0 Bft) NO 45 0 min 0,000 mm 0,0 UV-I 0 W/m 14,1 C 14,7 C 0,0 km/h (0 Bft) 0,00 %
02.08.2015 23:34 14,7 C 96 % 1021,1 hPa 0,0 l/m 0,0 km/h (0 Bft) NO 41 0 min 0,000 mm 0,0 UV-I 0 W/m 14,1 C 14,7 C 0,0 km/h (0 Bft) 0,00 %
02.08.2015 23:39 14,6 C 96 % 1021,0 hPa 0,0 l/m 0,0 km/h (0 Bft) NO 41 0 min 0,000 mm 0,0 UV-I 0 W/m 14,0 C 14,6 C 0,0 km/h (0 Bft) 0,00 %
02.08.2015 23:44 14,4 C 96 % 1020,9 hPa 0,0 l/m 0,0 km/h (0 Bft) NO 44 0 min 0,000 mm 0,0 UV-I 0 W/m 13,8 C 14,4 C 0,0 km/h (0 Bft) 0,00 %
02.08.2015 23:49 14,3 C 96 % 1020,9 hPa 0,0 l/m 0,0 km/h (0 Bft) NO 54 0 min 0,000 mm 0,0 UV-I 0 W/m 13,7 C 14,3 C 0,0 km/h (0 Bft) 0,00 %
02.08.2015 23:54 14,1 C 96 % 1020,8 hPa 0,0 l/m 0,0 km/h (0 Bft) O-NO 62 0 min 0,000 mm 0,0 UV-I 0 W/m 13,5 C 14,1 C 0,0 km/h (0 Bft) 0,00 %
02.08.2015 23:59 14,1 C 96 % 1020,9 hPa 0,0 l/m 0,0 km/h (0 Bft) NO 56 0 min 0,000 mm 0,0 UV-I 0 W/m 13,5 C 14,1 C 0,0 km/h (0 Bft) 0,00 %
_ Min-Zeit 23:54 00:02 00:12 - 00:02 - - - - - - 00:27 23:54 00:02 00:02
Minimum _ 14,1 C 63 % 1015,4 hPa - 0,0 km/h (0 Bft) - - - - - - 11,4 C 14,1 C 0,0 km/h (0 Bft) 0,00 %
_ Max-Zeit 19:09 08:13 23:09 07:03 02:03 - - 16:28 00:02 16:23 16:33 14:23 19:09 02:03 00:02
Maximum _ 20,2 C 98 % 1021,1 hPa 0,6 l/m 7,2 km/h
W-SW (2 Bft)
- - 5 min 0,000 mm 2,0 UV-I 411 W/m 15,3 C 20,2 C 11,9 km/h
W-SW (2 Bft)
0,00 %
Durchschnitt _ 16,4 C 88 % 1019,2 hPa #7,8 l/m 0,7 km/h (0 Bft) W-SW - #1:50 h #0,000 mm 1,0 UV-I 154 W/m 14,3 C 16,4 C 1,8 km/h (1 Bft) 0,00 %